Latest Coastal Weather Observations for Esperance Harbour

IDW60701

Issued at 9:23 am WST Saturday 1 October 2016 (issued every 10 minutes, with the page automatically refreshed every 10 minutes)

About coastal observations | Map of coastal stations | Coastal observations for WA | Marine services | Other Formats
Station Details ID: 109504 Name: ESPERANCE NTC AWS Lat: -33.87 Lon: 121.90 Height: 0.0 m
Data from the previous 72 hours. | See also: Recent months for locations in Western Australia
Date/Time
WST
Temp
°C
Wind Pressure Rain since
9am
mm
Weather Cloud Vis
km
Sea
Height
m
Swell
Dir  Spd
kts
Gust
kts
hPa Trend Height
m
Period
s
Dir
01/09:00am 16.3 - - - 994.7 - - - - - - - - -
01/08:30am 15.3 - - - 995.3 - - - - - - - - -
01/08:00am 14.4 - - - 996.1 - - - - - - - - -
01/07:30am 13.7 - - - 996.3 - - - - - - - - -
01/07:00am 12.8 - - - 996.8 - - - - - - - - -
01/06:30am 12.3 - - - 997.5 - - - - - - - - -
01/06:00am 11.9 - - - 997.9 - - - - - - - - -
01/05:30am 11.6 - - - 998.1 - - - - - - - - -
01/05:00am 11.3 - - - 998.4 - - - - - - - - -
01/04:30am 11.9 - - - 998.6 - - - - - - - - -
01/04:00am 11.8 - - - 998.6 - - - - - - - - -
01/03:30am 11.9 - - - 999.1 - - - - - - - - -
01/03:00am 12.3 - - - 999.2 - - - - - - - - -
01/02:30am 12.7 - - - 999.4 - - - - - - - - -
01/02:00am 13.5 - - - 999.9 - - - - - - - - -
01/01:30am 13.4 - - - 1000.1 - - - - - - - - -
01/01:00am 13.8 - - - 1000.5 - - - - - - - - -
01/12:30am 14.4 - - - 1000.8 - - - - - - - - -
01/12:00am 15.1 - - - 1001.0 - - - - - - - - -
 
Date/Time
WST
Temp
°C
Wind Pressure Rain since
9am
mm
Weather Cloud Vis
km
Sea
Height
m
Swell
Dir  Spd
kts
Gust
kts
hPa Trend Height
m
Period
s
Dir
30/11:30pm 15.3 - - - 1001.1 - - - - - - - - -
30/11:00pm 15.4 - - - 1001.3 - - - - - - - - -
30/10:30pm 15.7 - - - 1001.5 - - - - - - - - -
30/10:00pm 16.2 - - - 1001.9 - - - - - - - - -
30/09:30pm 16.5 - - - 1001.8 - - - - - - - - -
30/09:00pm 17.1 - - - 1001.8 - - - - - - - - -
30/08:30pm 17.6 - - - 1001.7 - - - - - - - - -
30/08:00pm 16.8 - - - 1001.6 - - - - - - - - -
30/07:30pm 16.6 - - - 1001.4 - - - - - - - - -
30/07:00pm 16.4 - - - 1001.2 - - - - - - - - -
30/06:30pm 17.2 - - - 1001.2 - - - - - - - - -
30/06:00pm 17.9 - - - 1001.0 - - - - - - - - -
30/05:30pm 18.4 - - - 1000.7 - - - - - - - - -
30/05:00pm 19.2 - - - 1000.3 - - - - - - - - -
30/04:30pm 19.4 - - - 1000.2 - - - - - - - - -
30/04:00pm 19.2 - - - 1000.2 - - - - - - - - -
30/03:30pm 19.6 - - - 1000.2 - - - - - - - - -
30/03:00pm 20.0 - - - 1000.3 - - - - - - - - -
30/02:30pm 21.2 - - - 1000.4 - - - - - - - - -
30/02:00pm 18.9 - - - 1000.4 - - - - - - - - -
30/01:30pm 19.5 - - - 1001.0 - - - - - - - - -
30/01:00pm 17.6 - - - 1001.5 - - - - - - - - -
30/12:30pm 17.1 - - - 1002.2 - - - - - - - - -
30/12:00pm 19.4 - - - 1002.7 - - - - - - - - -
30/11:30am 18.1 - - - 1003.2 - - - - - - - - -
30/11:00am 17.5 - - - 1003.4 - - - - - - - - -
30/10:30am 17.1 - - - 1004.1 - - - - - - - - -
30/10:00am 15.9 - - - 1004.3 - - - - - - - - -
30/09:30am 15.0 - - - 1004.4 - - - - - - - - -
30/09:00am 14.1 - - - 1005.1 - - - - - - - - -
30/08:30am 12.8 - - - 1005.8 - - - - - - - - -
30/08:00am 11.9 - - - 1006.1 - - - - - - - - -
30/07:30am 10.8 - - - 1006.5 - - - - - - - - -
30/07:00am 10.3 - - - 1006.7 - - - - - - - - -
30/06:30am 9.7 - - - 1007.1 - - - - - - - - -
30/06:00am 9.0 - - - 1007.3 - - - - - - - - -
30/05:30am 9.4 - - - 1007.4 - - - - - - - - -
30/05:00am 9.6 - - - 1008.0 - - - - - - - - -
30/04:30am 9.5 - - - 1008.3 - - - - - - - - -
30/04:00am 9.4 - - - 1008.4 - - - - - - - - -
30/03:30am 9.7 - - - 1008.8 - - - - - - - - -
30/03:00am 9.8 - - - 1009.4 - - - - - - - - -
30/02:30am 9.4 - - - 1010.2 - - - - - - - - -
30/02:00am 9.6 - - - 1010.6 - - - - - - - - -
30/01:30am 9.8 - - - 1011.5 - - - - - - - - -
30/01:00am 10.0 - - - 1012.3 - - - - - - - - -
30/12:30am 10.0 - - - 1013.0 - - - - - - - - -
30/12:00am 10.7 - - - 1013.5 - - - - - - - - -
 
Date/Time
WST
Temp
°C
Wind Pressure Rain since
9am
mm
Weather Cloud Vis
km
Sea
Height
m
Swell
Dir  Spd
kts
Gust
kts
hPa Trend Height
m
Period
s
Dir
29/11:30pm 10.6 - - - 1013.8 - - - - - - - - -
29/11:00pm 10.8 - - - 1014.1 - - - - - - - - -
29/10:30pm 11.1 - - - 1014.4 - - - - - - - - -
29/10:00pm 11.4 - - - 1014.5 - - - - - - - - -
29/09:30pm 12.0 - - - 1015.1 - - - - - - - - -
29/09:00pm 12.0 - - - 1015.3 - - - - - - - - -
29/08:30pm 12.2 - - - 1015.7 - - - - - - - - -
29/08:00pm 12.2 - - - 1015.6 - - - - - - - - -
29/07:30pm 12.6 - - - 1015.3 - - - - - - - - -
29/07:00pm 12.5 - - - 1015.5 - - - - - - - - -
29/06:30pm 13.0 - - - 1015.5 - - - - - - - - -
29/06:00pm 13.4 - - - 1016.1 - - - - - - - - -
29/05:30pm 13.3 - - - 1016.3 - - - - - - - - -
29/05:00pm 13.9 - - - 1016.6 - - - - - - - - -
29/04:30pm 14.3 - - - 1017.0 - - - - - - - - -
29/04:00pm 14.3 - - - 1017.3 - - - - - - - - -
29/03:30pm 14.7 - - - 1017.6 - - - - - - - - -
29/03:00pm 14.2 - - - 1017.9 - - - - - - - - -
29/02:30pm 14.3 - - - 1018.4 - - - - - - - - -
29/02:00pm 13.7 - - - 1019.0 - - - - - - - - -
29/01:30pm 13.6 - - - 1019.4 - - - - - - - - -
29/01:00pm 13.5 - - - 1020.0 - - - - - - - - -
29/12:30pm 13.1 - - - 1020.3 - - - - - - - - -
29/12:00pm 13.4 - - - 1020.8 - - - - - - - - -
29/11:30am 13.2 - - - 1020.7 - - - - - - - - -
29/11:00am 12.9 - - - 1020.8 - - - - - - - - -
29/10:30am 13.1 - - - 1021.1 - - - - - - - - -
29/10:00am 12.9 - - - 1021.2 - - - - - - - - -
29/09:30am 12.6 - - - 1021.4 - - - - - - - - -
29/09:00am 12.6 - - - 1021.5 - - - - - - - - -
29/08:30am 12.4 - - - 1021.5 - - - - - - - - -
29/08:00am 12.4 - - - 1021.3 - - - - - - - - -
29/07:30am 12.2 - - - 1021.0 - - - - - - - - -
29/07:00am 11.9 - - - 1020.7 - - - - - - - - -
29/06:30am 11.8 - - - 1020.7 - - - - - - - - -
29/06:00am 11.7 - - - 1020.8 - - - - - - - - -
29/05:30am 11.5 - - - 1020.6 - - - - - - - - -
29/05:00am 11.4 - - - 1020.5 - - - - - - - - -
29/04:30am 11.4 - - - 1020.4 - - - - - - - - -
29/04:00am 11.4 - - - 1020.3 - - - - - - - - -
29/03:30am 11.3 - - - 1020.3 - - - - - - - - -
29/03:00am 11.1 - - - 1020.3 - - - - - - - - -
29/02:30am 11.3 - - - 1020.2 - - - - - - - - -
29/02:00am 11.2 - - - 1020.1 - - - - - - - - -
29/01:30am 11.2 - - - 1020.2 - - - - - - - - -
29/01:00am 11.0 - - - 1020.5 - - - - - - - - -
29/12:30am 11.3 - - - 1020.6 - - - - - - - - -
29/12:00am 11.2 - - - 1020.7 - - - - - - - - -
 
Date/Time
WST
Temp
°C
Wind Pressure Rain since
9am
mm
Weather Cloud Vis
km
Sea
Height
m
Swell
Dir  Spd
kts
Gust
kts
hPa Trend Height
m
Period
s
Dir
28/11:30pm 10.9 - - - 1021.0 - - - - - - - - -
28/11:00pm 11.2 - - - 1020.8 - - - - - - - - -
28/10:30pm 10.9 - - - 1021.1 - - - - - - - - -
28/10:00pm 10.7 - - - 1021.1 - - - - - - - - -
28/09:30pm 10.9 - - - 1021.2 - - - - - - - - -
28/09:00pm 11.1 - - - 1021.1 - - - - - - - - -
28/08:30pm 10.6 - - - 1021.0 - - - - - - - - -
28/08:00pm 9.9 - - - 1021.0 - - - - - - - - -
28/07:30pm 10.4 - - - 1021.1 - - - - - - - - -
28/07:00pm 10.5 - - - 1020.9 - - - - - - - - -
28/06:30pm 10.1 - - - 1020.5 - - - - - - - - -
28/06:00pm 10.3 - - - 1020.2 - - - - - - - - -
28/05:30pm 10.1 - - - 1020.1 - - - - - - - - -
28/05:00pm 10.8 - - - 1019.5 - - - - - - - - -
28/04:30pm 10.0 - - - 1019.2 - - - - - - - - -
28/04:00pm 10.9 - - - 1018.6 - - - - - - - - -
28/03:30pm 10.6 - - - 1018.4 - - - - - - - - -
28/03:00pm 11.1 - - - 1018.0 - - - - - - - - -
28/02:30pm 11.4 - - - 1017.7 - - - - - - - - -
28/02:00pm 11.9 - - - 1017.2 - - - - - - - - -
28/01:30pm 10.9 - - - 1017.3 - - - - - - - - -
28/01:00pm 10.7 - - - 1016.9 - - - - - - - - -
28/12:30pm 12.2 - - - 1016.4 - - - - - - - - -
28/12:00pm 11.2 - - - 1016.4 - - - - - - - - -
28/11:30am 10.3 - - - 1016.2 - - - - - - - - -
28/11:00am 11.8 - - - 1015.7 - - - - - - - - -
28/10:30am 11.6 - - - 1014.9 - - - - - - - - -
28/10:00am 10.6 - - - 1014.7 - - - - - - - - -
28/09:30am 10.6 - - - 1014.2 - - - - - - - - -

Other Formats:

Comma delimited format used in spreadsheet applications
http://www.bom.gov.au/fwo/IDW60701/IDW60701.95648.axf

JavaScript Object Notation format (JSON) in row-major order
http://www.bom.gov.au/fwo/IDW60701/IDW60701.95648.json